ETH672 RKSI-RJAA

Flight info

Callsign ETH672
Flight time 1h 56m
Altitude 41000
Route EGOBA2A EGOBA Y697 KARBU DCT LANAT Y51 SAMON Y517 ESKAS Y303 ENTAK/N0499F400 Y30 SWAMP SWAMPN
Aircraft A359/H-SDE2E3GHIJ3J4J5LM1ORWXY/LB1D1

Departure

Time 2026-05-01 11:22
Airport Incheon International Airport (RKSI)

Arrival

Time 2026-05-01 13:18
Airport Narita International Airport (RJAA)
Time Latitude Longitude Altitude Speed Heading
2026-05-01 10:42 37.45274 126.45044 38 ft 0 kts 72°
2026-05-01 11:04 37.45276 126.45048 39 ft 4 kts 72°
2026-05-01 11:05 37.45284 126.45081 39 ft 4 kts 72°
2026-05-01 11:05 37.45292 126.45113 39 ft 4 kts 72°
2026-05-01 11:05 37.45271 126.45029 37 ft 0 kts 72°
2026-05-01 11:05 37.45279 126.45061 40 ft 0 kts 72°
2026-05-01 11:06 37.45271 126.45031 36 ft 0 kts 72°
2026-05-01 11:09 37.45270 126.45028 39 ft 2 kts 72°
2026-05-01 11:09 37.45265 126.45007 38 ft 3 kts 68°
2026-05-01 11:10 37.45247 126.44962 37 ft 3 kts 50°
2026-05-01 11:10 37.45234 126.44946 38 ft 3 kts 31°
2026-05-01 11:10 37.45221 126.44937 37 ft 3 kts
2026-05-01 11:10 37.45212 126.44937 38 ft 0 kts 343°
2026-05-01 11:14 37.45215 126.44936 37 ft 2 kts 343°
2026-05-01 11:14 37.45247 126.44925 38 ft 7 kts 344°
2026-05-01 11:14 37.45315 126.44901 39 ft 11 kts 349°
2026-05-01 11:15 37.45401 126.44900 39 ft 13 kts 15°
2026-05-01 11:15 37.45475 126.44983 38 ft 15 kts 52°
2026-05-01 11:15 37.45543 126.45102 39 ft 18 kts 55°
2026-05-01 11:15 37.45618 126.45235 39 ft 16 kts 55°
2026-05-01 11:16 37.45672 126.45332 39 ft 10 kts 54°
2026-05-01 11:16 37.45683 126.45422 39 ft 11 kts 112°
2026-05-01 11:16 37.45619 126.45496 39 ft 14 kts 142°
2026-05-01 11:16 37.45534 126.45572 39 ft 16 kts 144°
2026-05-01 11:17 37.45464 126.45634 39 ft 8 kts 146°
2026-05-01 11:17 37.45409 126.45682 39 ft 11 kts 144°
2026-05-01 11:17 37.45356 126.45730 39 ft 9 kts 145°
2026-05-01 11:17 37.45302 126.45784 39 ft 11 kts 126°
2026-05-01 11:18 37.45314 126.45873 39 ft 11 kts 54°
2026-05-01 11:18 37.45351 126.45937 39 ft 0 kts 54°
2026-05-01 11:20 37.45352 126.45939 39 ft 2 kts 54°
2026-05-01 11:21 37.45374 126.45978 39 ft 10 kts 53°
2026-05-01 11:21 37.45437 126.46041 39 ft 13 kts 12°
2026-05-01 11:21 37.45521 126.45998 39 ft 14 kts 324°
2026-05-01 11:21 37.45645 126.45887 39 ft 44 kts 325°
2026-05-01 11:22 37.46101 126.45483 39 ft 113 kts 324°
2026-05-01 11:22 37.46918 126.44769 64 ft 168 kts 324°
2026-05-01 11:22 37.47903 126.44009 814 ft 162 kts 325°
2026-05-01 11:22 37.48824 126.43289 1853 ft 148 kts 322°
2026-05-01 11:23 37.49677 126.42571 2394 ft 152 kts 323°
2026-05-01 11:23 37.50286 126.42050 2641 ft 158 kts 323°
2026-05-01 11:23 37.51189 126.41283 3131 ft 160 kts 324°
2026-05-01 11:23 37.52163 126.40459 3394 ft 178 kts 324°
2026-05-01 11:24 37.53651 126.39209 3678 ft 208 kts 325°
2026-05-01 11:24 37.54909 126.38156 4049 ft 225 kts 325°
2026-05-01 11:24 37.57363 126.36766 5013 ft 237 kts 343°
2026-05-01 11:25 37.58970 126.36198 5456 ft 241 kts 344°
2026-05-01 11:25 37.62244 126.35388 5499 ft 244 kts
2026-05-01 11:25 37.63854 126.36044 5499 ft 248 kts 31°
2026-05-01 11:26 37.65060 126.37695 5509 ft 267 kts 60°
2026-05-01 11:26 37.66373 126.42172 5497 ft 276 kts 69°
2026-05-01 11:26 37.66790 126.44536 5491 ft 279 kts 86°
2026-05-01 11:27 37.66497 126.46788 5619 ft 282 kts 108°
2026-05-01 11:27 37.65814 126.49131 6110 ft 284 kts 110°
2026-05-01 11:27 37.65109 126.51468 6843 ft 284 kts 109°
2026-05-01 11:27 37.64378 126.53786 7504 ft 286 kts 115°
2026-05-01 11:28 37.63231 126.55796 8168 ft 288 kts 135°
2026-05-01 11:28 37.61753 126.57526 8878 ft 290 kts 139°
2026-05-01 11:28 37.60257 126.59247 9593 ft 292 kts 135°
2026-05-01 11:29 37.57703 126.63396 10538 ft 312 kts 126°
2026-05-01 11:29 37.56437 126.65645 10792 ft 327 kts 126°
2026-05-01 11:29 37.53710 126.70553 11321 ft 355 kts 126°
2026-05-01 11:30 37.52267 126.73159 11597 ft 366 kts 126°
2026-05-01 11:30 37.50812 126.75788 12099 ft 369 kts 125°
2026-05-01 11:30 37.49342 126.78443 12715 ft 370 kts 126°
2026-05-01 11:30 37.47865 126.81112 13320 ft 370 kts 126°
2026-05-01 11:31 37.46407 126.83742 14177 ft 361 kts 126°
2026-05-01 11:31 37.44974 126.86326 14845 ft 359 kts 126°
2026-05-01 11:31 37.43551 126.88915 15389 ft 361 kts 124°
2026-05-01 11:31 37.42377 126.91717 15894 ft 365 kts 111°
2026-05-01 11:32 37.41872 126.94866 16251 ft 373 kts 91°
2026-05-01 11:32 37.42165 126.98143 16478 ft 383 kts 78°
2026-05-01 11:32 37.42725 127.01474 16695 ft 394 kts 77°
2026-05-01 11:32 37.43309 127.04845 16931 ft 403 kts 77°
2026-05-01 11:33 37.43899 127.08328 17263 ft 408 kts 78°
2026-05-01 11:33 37.44485 127.11838 17628 ft 411 kts 78°
2026-05-01 11:33 37.45070 127.15378 18039 ft 414 kts 78°
2026-05-01 11:33 37.45657 127.18953 18405 ft 418 kts 78°
2026-05-01 11:34 37.46245 127.22545 18721 ft 421 kts 78°
2026-05-01 11:34 37.46836 127.26172 19058 ft 424 kts 78°
2026-05-01 11:34 37.47423 127.29784 19390 ft 427 kts 78°
2026-05-01 11:34 37.48019 127.33451 19726 ft 429 kts 78°
2026-05-01 11:35 37.48617 127.37150 20058 ft 432 kts 77°
2026-05-01 11:35 37.49221 127.40872 20364 ft 435 kts 77°
2026-05-01 11:35 37.49828 127.44623 20708 ft 437 kts 77°
2026-05-01 11:35 37.50435 127.48399 21032 ft 440 kts 77°
2026-05-01 11:36 37.51036 127.52150 21329 ft 443 kts 77°
2026-05-01 11:36 37.51645 127.55967 21622 ft 446 kts 77°
2026-05-01 11:36 37.52253 127.59817 21927 ft 449 kts 78°
2026-05-01 11:36 37.52623 127.63739 22216 ft 453 kts 86°
2026-05-01 11:37 37.52494 127.67715 22516 ft 457 kts 97°
2026-05-01 11:37 37.51809 127.71627 22803 ft 459 kts 106°
2026-05-01 11:37 37.50845 127.75490 23085 ft 462 kts 109°
2026-05-01 11:37 37.49760 127.79314 23382 ft 464 kts 111°
2026-05-01 11:38 37.48613 127.83143 23630 ft 467 kts 111°
2026-05-01 11:38 37.47450 127.86981 23809 ft 471 kts 111°
2026-05-01 11:38 37.46299 127.90803 24032 ft 474 kts 111°
2026-05-01 11:38 37.45139 127.94700 24270 ft 476 kts 111°
2026-05-01 11:39 37.43988 127.98610 24501 ft 478 kts 110°
2026-05-01 11:39 37.42819 128.02604 24711 ft 482 kts 110°
2026-05-01 11:39 37.41678 128.06515 24905 ft 485 kts 110°
2026-05-01 11:39 37.40512 128.10511 25144 ft 487 kts 110°
2026-05-01 11:40 37.39341 128.14521 25358 ft 490 kts 110°
2026-05-01 11:40 37.38154 128.18573 25551 ft 493 kts 110°
2026-05-01 11:40 37.36962 128.22635 25795 ft 496 kts 110°
2026-05-01 11:40 37.35778 128.26664 26001 ft 498 kts 110°
2026-05-01 11:41 37.34573 128.30759 26216 ft 501 kts 110°
2026-05-01 11:41 37.33354 128.34891 26414 ft 505 kts 110°
2026-05-01 11:41 37.32126 128.39052 26652 ft 508 kts 110°
2026-05-01 11:41 37.30891 128.43225 26900 ft 510 kts 110°
2026-05-01 11:42 37.29649 128.47417 27136 ft 513 kts 110°
2026-05-01 11:42 37.28396 128.51636 27317 ft 517 kts 110°
2026-05-01 11:42 37.27148 128.55835 27575 ft 520 kts 110°
2026-05-01 11:42 37.25885 128.60084 27843 ft 522 kts 110°
2026-05-01 11:43 37.24604 128.64380 28240 ft 527 kts 110°
2026-05-01 11:43 37.23310 128.68716 28645 ft 533 kts 110°
2026-05-01 11:43 37.21998 128.73106 29075 ft 538 kts 111°
2026-05-01 11:44 37.19336 128.81991 29910 ft 548 kts 110°
2026-05-01 11:44 37.17983 128.86491 30206 ft 553 kts 111°
2026-05-01 11:44 37.16620 128.91021 30541 ft 557 kts 111°
2026-05-01 11:44 37.15244 128.95583 30900 ft 559 kts 111°
2026-05-01 11:45 37.13880 129.00099 31213 ft 563 kts 111°
2026-05-01 11:45 37.12486 129.04702 31446 ft 568 kts 111°
2026-05-01 11:45 37.11077 129.09354 31760 ft 571 kts 111°
2026-05-01 11:45 37.09658 129.14036 32072 ft 573 kts 111°
2026-05-01 11:46 37.08238 129.18714 32375 ft 576 kts 111°
2026-05-01 11:46 37.06807 129.23414 32710 ft 578 kts 111°
2026-05-01 11:46 37.05390 129.28064 33135 ft 577 kts 111°
2026-05-01 11:46 37.03953 129.32772 33570 ft 577 kts 111°
2026-05-01 11:47 37.02520 129.37457 33967 ft 577 kts 111°
2026-05-01 11:47 37.01075 129.42170 34241 ft 578 kts 111°
2026-05-01 11:47 36.99631 129.46871 34558 ft 579 kts 111°
2026-05-01 11:47 36.98202 129.51517 34869 ft 579 kts 111°
2026-05-01 11:48 36.96753 129.56222 35175 ft 580 kts 111°
2026-05-01 11:48 36.95299 129.60933 35410 ft 582 kts 111°
2026-05-01 11:48 36.93838 129.65660 35701 ft 583 kts 111°
2026-05-01 11:48 36.92379 129.70376 36003 ft 583 kts 111°
2026-05-01 11:49 36.90913 129.75105 36296 ft 583 kts 111°
2026-05-01 11:49 36.89445 129.79832 36527 ft 585 kts 111°
2026-05-01 11:49 36.87969 129.84576 36817 ft 585 kts 111°
2026-05-01 11:49 36.86490 129.89323 37118 ft 585 kts 111°
2026-05-01 11:50 36.85012 129.94058 37443 ft 585 kts 111°
2026-05-01 11:50 36.83532 129.98793 37672 ft 586 kts 111°
2026-05-01 11:50 36.82047 130.03533 37955 ft 586 kts 111°
2026-05-01 11:50 36.80579 130.08216 38259 ft 585 kts 111°
2026-05-01 11:51 36.79091 130.12952 38554 ft 584 kts 111°
2026-05-01 11:51 36.77605 130.17672 38788 ft 583 kts 111°
2026-05-01 11:51 36.76119 130.22387 39110 ft 580 kts 112°
2026-05-01 11:51 36.74661 130.27007 39472 ft 576 kts 112°
2026-05-01 11:52 36.73197 130.31637 39814 ft 573 kts 112°
2026-05-01 11:52 36.71734 130.36255 40093 ft 570 kts 112°
2026-05-01 11:52 36.70279 130.40841 40363 ft 568 kts 112°
2026-05-01 11:52 36.68825 130.45419 40644 ft 566 kts 112°
2026-05-01 11:53 36.67372 130.49983 40916 ft 563 kts 112°
2026-05-01 11:53 36.65928 130.54512 41130 ft 559 kts 112°
2026-05-01 11:53 36.64523 130.58915 40925 ft 551 kts 112°
2026-05-01 11:53 36.63097 130.63374 40848 ft 555 kts 112°
2026-05-01 11:54 36.60208 130.72383 40847 ft 563 kts 112°
2026-05-01 11:54 36.57287 130.81469 40834 ft 565 kts 112°
2026-05-01 11:55 36.54375 130.90500 40837 ft 565 kts 112°
2026-05-01 11:55 36.51436 130.99568 40839 ft 566 kts 110°
2026-05-01 11:56 36.48505 131.08609 40840 ft 566 kts 110°
2026-05-01 11:56 36.45556 131.17679 40842 ft 565 kts 110°
2026-05-01 11:57 36.43097 131.25216 40838 ft 564 kts 110°
2026-05-01 11:57 36.39664 131.35703 40837 ft 563 kts 111°
2026-05-01 11:58 36.37457 131.44953 40839 ft 556 kts 94°
2026-05-01 11:59 36.36733 131.59245 40838 ft 551 kts 88°
2026-05-01 11:59 36.36490 131.68751 40842 ft 551 kts 88°
2026-05-01 12:00 36.36076 131.82985 40843 ft 549 kts 88°
2026-05-01 12:01 36.35602 131.97176 40839 ft 548 kts 89°
2026-05-01 12:01 36.35278 132.06565 40841 ft 547 kts 89°
2026-05-01 12:02 36.34945 132.16011 40837 ft 547 kts 89°
2026-05-01 12:02 36.34606 132.25429 40841 ft 546 kts 89°
2026-05-01 12:03 36.34262 132.34789 40835 ft 545 kts 89°
2026-05-01 12:03 36.33908 132.44204 40833 ft 545 kts 89°
2026-05-01 12:04 36.33549 132.53550 40824 ft 545 kts 89°
2026-05-01 12:04 36.33181 132.62950 40827 ft 545 kts 89°
2026-05-01 12:05 36.32806 132.72351 40828 ft 545 kts 90°
2026-05-01 12:05 36.32229 132.86419 40817 ft 543 kts 90°
2026-05-01 12:06 36.31839 132.95727 40814 ft 543 kts 90°
2026-05-01 12:06 36.31439 133.05093 40810 ft 542 kts 90°
2026-05-01 12:07 36.31041 133.14251 40806 ft 542 kts 90°
2026-05-01 12:07 36.30628 133.23592 40798 ft 542 kts 90°
2026-05-01 12:08 36.30207 133.32940 40791 ft 542 kts 91°
2026-05-01 12:08 36.29781 133.42264 40795 ft 541 kts 91°
2026-05-01 12:09 36.29349 133.51544 40785 ft 541 kts 91°
2026-05-01 12:09 36.28907 133.60868 40777 ft 541 kts 91°
2026-05-01 12:10 36.28235 133.74775 40777 ft 541 kts 91°
2026-05-01 12:11 36.27544 133.88741 40767 ft 540 kts 92°
2026-05-01 12:11 36.27152 133.96485 40763 ft 540 kts 92°
2026-05-01 12:12 36.26676 134.05778 40750 ft 540 kts 92°
2026-05-01 12:12 36.26191 134.15075 40747 ft 540 kts 92°
2026-05-01 12:13 36.25701 134.24356 40741 ft 539 kts 92°
2026-05-01 12:13 36.25210 134.33544 40732 ft 539 kts 92°
2026-05-01 12:14 36.24705 134.42843 40728 ft 539 kts 92°
2026-05-01 12:14 36.24737 134.52091 40722 ft 535 kts 79°
2026-05-01 12:15 36.26058 134.61159 40717 ft 534 kts 76°
2026-05-01 12:15 36.27590 134.70183 40710 ft 534 kts 76°
2026-05-01 12:16 36.29127 134.79144 40702 ft 534 kts 76°
2026-05-01 12:16 36.30644 134.88161 40695 ft 534 kts 76°
2026-05-01 12:17 36.32140 134.97183 40687 ft 534 kts 76°
2026-05-01 12:17 36.33630 135.06233 40678 ft 534 kts 76°
2026-05-01 12:18 36.35111 135.15268 40670 ft 534 kts 77°
2026-05-01 12:18 36.36580 135.24270 40658 ft 534 kts 77°
2026-05-01 12:19 36.38049 135.33316 40650 ft 534 kts 77°
2026-05-01 12:19 36.39508 135.42345 40644 ft 535 kts 77°
2026-05-01 12:20 36.40966 135.51419 40632 ft 535 kts 77°
2026-05-01 12:20 36.42411 135.60451 40623 ft 535 kts 77°
2026-05-01 12:21 36.43856 135.69531 40618 ft 536 kts 77°
2026-05-01 12:21 36.45286 135.78565 40614 ft 536 kts 77°
2026-05-01 12:22 36.46719 135.87667 40604 ft 536 kts 78°
2026-05-01 12:22 36.48145 135.96767 40600 ft 536 kts 78°
2026-05-01 12:23 36.49553 136.05803 40603 ft 535 kts 78°
2026-05-01 12:23 36.50964 136.14904 40601 ft 535 kts 78°
2026-05-01 12:24 36.52360 136.23957 40605 ft 535 kts 78°
2026-05-01 12:24 36.53756 136.33055 40605 ft 535 kts 78°
2026-05-01 12:25 36.55829 136.46658 40605 ft 535 kts 78°
2026-05-01 12:26 36.57209 136.55772 40603 ft 535 kts 78°
2026-05-01 12:26 36.59260 136.69409 40594 ft 534 kts 79°
2026-05-01 12:27 36.61292 136.83032 40588 ft 535 kts 79°
2026-05-01 12:28 36.63308 136.96656 40584 ft 535 kts 79°
2026-05-01 12:29 36.65288 137.10372 40582 ft 535 kts 79°
2026-05-01 12:29 36.67229 137.24035 40582 ft 536 kts 80°
2026-05-01 12:30 36.69171 137.37767 40585 ft 536 kts 80°
2026-05-01 12:31 36.70457 137.46911 40583 ft 536 kts 80°
2026-05-01 12:31 36.71736 137.56066 40583 ft 536 kts 80°
2026-05-01 12:32 36.73001 137.65180 40572 ft 537 kts 80°
2026-05-01 12:32 36.74905 137.78983 40557 ft 537 kts 80°
2026-05-01 12:33 36.76165 137.88178 40549 ft 536 kts 81°
2026-05-01 12:33 36.77406 137.97300 40539 ft 536 kts 81°
2026-05-01 12:34 36.78647 138.06477 40534 ft 536 kts 81°
2026-05-01 12:34 36.79892 138.15662 40533 ft 536 kts 81°
2026-05-01 12:35 36.81152 138.24791 40532 ft 536 kts 81°
2026-05-01 12:35 36.82412 138.33958 40529 ft 536 kts 81°
2026-05-01 12:36 36.83660 138.43128 40534 ft 536 kts 81°
2026-05-01 12:36 36.84903 138.52326 40530 ft 536 kts 81°
2026-05-01 12:37 36.86117 138.61516 40533 ft 536 kts 82°
2026-05-01 12:37 36.87320 138.70731 40531 ft 536 kts 82°
2026-05-01 12:38 36.88512 138.79876 40529 ft 536 kts 82°
2026-05-01 12:38 36.89707 138.89100 40529 ft 537 kts 82°
2026-05-01 12:39 36.90894 138.98314 40533 ft 536 kts 82°
2026-05-01 12:39 36.92068 139.07472 40534 ft 536 kts 82°
2026-05-01 12:40 36.93264 139.16699 40534 ft 536 kts 82°
2026-05-01 12:40 36.94455 139.25843 40535 ft 536 kts 82°
2026-05-01 12:41 36.95646 139.35045 40526 ft 536 kts 82°
2026-05-01 12:41 36.96239 139.39662 40339 ft 537 kts 83°
2026-05-01 12:41 36.96829 139.44273 40103 ft 537 kts 83°
2026-05-01 12:42 36.97417 139.48886 39865 ft 537 kts 83°
2026-05-01 12:42 36.98002 139.53506 39632 ft 537 kts 83°
2026-05-01 12:42 36.98578 139.58070 39404 ft 538 kts 83°
2026-05-01 12:42 36.99162 139.62695 39173 ft 538 kts 83°
2026-05-01 12:43 36.99746 139.67325 38922 ft 536 kts 83°
2026-05-01 12:43 37.00324 139.71920 38439 ft 534 kts 83°
2026-05-01 12:43 37.00902 139.76535 37728 ft 536 kts 83°
2026-05-01 12:43 37.01478 139.81154 37015 ft 537 kts 84°
2026-05-01 12:44 37.02048 139.85714 36353 ft 537 kts 84°
2026-05-01 12:44 37.02621 139.90331 35641 ft 538 kts 84°
2026-05-01 12:44 37.03766 139.99604 34169 ft 539 kts 85°
2026-05-01 12:45 37.04904 140.08847 32445 ft 525 kts 85°
2026-05-01 12:45 37.05410 140.13284 31732 ft 508 kts 88°
2026-05-01 12:45 37.05418 140.17613 30674 ft 488 kts 101°
2026-05-01 12:46 37.04760 140.21705 29475 ft 474 kts 110°
2026-05-01 12:46 37.03832 140.25626 28064 ft 465 kts 111°
2026-05-01 12:46 37.02772 140.29477 27041 ft 466 kts 117°
2026-05-01 12:46 37.01239 140.32992 26586 ft 454 kts 128°
2026-05-01 12:47 36.99403 140.36105 26111 ft 446 kts 131°
2026-05-01 12:47 36.97483 140.39155 25529 ft 443 kts 131°
2026-05-01 12:47 36.95543 140.42134 24997 ft 438 kts 135°
2026-05-01 12:47 36.93362 140.44766 24945 ft 432 kts 144°
2026-05-01 12:48 36.90924 140.46849 24878 ft 426 kts 154°
2026-05-01 12:48 36.88296 140.48482 24434 ft 418 kts 160°
2026-05-01 12:48 36.85593 140.49811 23965 ft 413 kts 163°
2026-05-01 12:48 36.82888 140.50971 23463 ft 410 kts 165°
2026-05-01 12:49 36.80182 140.52073 22980 ft 408 kts 165°
2026-05-01 12:49 36.77495 140.53163 22428 ft 405 kts 165°
2026-05-01 12:49 36.74822 140.54270 21931 ft 402 kts 165°
2026-05-01 12:49 36.72217 140.55375 21448 ft 398 kts 164°
2026-05-01 12:50 36.69605 140.56500 20951 ft 395 kts 164°
2026-05-01 12:50 36.67017 140.57626 20460 ft 392 kts 164°
2026-05-01 12:50 36.64448 140.58748 19978 ft 389 kts 164°
2026-05-01 12:50 36.61903 140.59862 19492 ft 386 kts 164°
2026-05-01 12:51 36.59403 140.60958 19060 ft 371 kts 164°
2026-05-01 12:51 36.56956 140.61793 18542 ft 360 kts 174°
2026-05-01 12:51 36.52123 140.61353 17516 ft 348 kts 198°
2026-05-01 12:52 36.49800 140.60516 17002 ft 346 kts 199°
2026-05-01 12:52 36.45406 140.58868 16086 ft 310 kts 200°
2026-05-01 12:52 36.43393 140.58109 15619 ft 295 kts 200°
2026-05-01 12:53 36.39516 140.56636 14835 ft 290 kts 200°
2026-05-01 12:53 36.37587 140.55904 14424 ft 288 kts 201°
2026-05-01 12:53 36.35656 140.55276 14017 ft 288 kts 195°
2026-05-01 12:54 36.33639 140.55142 13597 ft 292 kts 181°
2026-05-01 12:54 36.29808 140.56957 12809 ft 309 kts 149°
2026-05-01 12:54 36.28220 140.58789 12542 ft 315 kts 140°
2026-05-01 12:55 36.25358 140.62685 12040 ft 288 kts 140°
2026-05-01 12:55 36.24015 140.64502 11428 ft 284 kts 141°
2026-05-01 12:55 36.22696 140.66268 11043 ft 272 kts 141°
2026-05-01 12:56 36.21436 140.67957 10961 ft 266 kts 141°
2026-05-01 12:56 36.20184 140.69611 10968 ft 266 kts 142°
2026-05-01 12:56 36.18919 140.71283 10964 ft 265 kts 142°
2026-05-01 12:56 36.17663 140.72944 10959 ft 264 kts 142°
2026-05-01 12:57 36.16406 140.74606 10959 ft 263 kts 142°
2026-05-01 12:57 36.13900 140.77919 10949 ft 263 kts 142°
2026-05-01 12:57 36.12629 140.79485 10952 ft 257 kts 150°
2026-05-01 12:58 36.11173 140.80721 10956 ft 250 kts 159°
2026-05-01 12:58 36.09676 140.81827 10961 ft 250 kts 159°
2026-05-01 12:58 36.08178 140.82921 10959 ft 250 kts 159°
2026-05-01 12:59 36.05217 140.85100 10843 ft 246 kts 159°
2026-05-01 12:59 36.03740 140.86192 10503 ft 247 kts 159°
2026-05-01 12:59 36.00811 140.88353 9854 ft 249 kts 159°
2026-05-01 13:00 35.98836 140.89693 9444 ft 243 kts 167°
2026-05-01 13:00 35.97273 140.90459 9117 ft 240 kts 170°
2026-05-01 13:01 35.94131 140.91883 8434 ft 240 kts 170°
2026-05-01 13:01 35.92562 140.92597 8103 ft 240 kts 170°
2026-05-01 13:01 35.89454 140.94015 7492 ft 238 kts 171°
2026-05-01 13:02 35.87881 140.94477 7191 ft 225 kts 187°
2026-05-01 13:07 35.79426 140.70511 5251 ft 242 kts 300°
2026-05-01 13:07 35.80403 140.68814 5052 ft 242 kts 301°
2026-05-01 13:07 35.81379 140.67111 4936 ft 243 kts 301°
2026-05-01 13:08 35.82355 140.65411 4807 ft 243 kts 301°
2026-05-01 13:08 35.83331 140.63713 4689 ft 242 kts 301°
2026-05-01 13:08 35.84303 140.62017 4563 ft 242 kts 301°
2026-05-01 13:08 35.85274 140.60321 4440 ft 241 kts 301°
2026-05-01 13:09 35.86240 140.58634 4321 ft 240 kts 302°
2026-05-01 13:09 35.87192 140.56974 4200 ft 239 kts 301°
2026-05-01 13:09 35.88150 140.55302 4069 ft 239 kts 301°
2026-05-01 13:09 35.89106 140.53630 4002 ft 238 kts 301°
2026-05-01 13:10 35.90063 140.51954 3994 ft 238 kts 301°
2026-05-01 13:10 35.91006 140.50306 3997 ft 237 kts 301°
2026-05-01 13:10 35.91957 140.48640 3996 ft 237 kts 301°
2026-05-01 13:10 35.92907 140.46974 3997 ft 236 kts 301°
2026-05-01 13:11 35.93851 140.45316 3992 ft 236 kts 302°
2026-05-01 13:11 35.94799 140.43653 3997 ft 237 kts 302°
2026-05-01 13:11 35.95745 140.41996 3993 ft 236 kts 301°
2026-05-01 13:11 35.96687 140.40364 3946 ft 228 kts 302°
2026-05-01 13:12 35.97607 140.38850 3812 ft 217 kts 303°
2026-05-01 13:12 35.98507 140.37376 3675 ft 215 kts 303°
2026-05-01 13:12 35.99407 140.35889 3549 ft 216 kts 303°
2026-05-01 13:12 36.00223 140.34352 3418 ft 212 kts 294°
2026-05-01 13:13 36.00559 140.32594 3292 ft 211 kts 270°
2026-05-01 13:13 36.00207 140.30834 3171 ft 215 kts 246°
2026-05-01 13:13 35.99387 140.29306 3056 ft 210 kts 238°
2026-05-01 13:13 35.98440 140.27984 2982 ft 203 kts 227°
2026-05-01 13:14 35.97248 140.27156 2990 ft 199 kts 205°
2026-05-01 13:14 35.95846 140.27071 3008 ft 207 kts 179°
2026-05-01 13:14 35.94433 140.27561 2998 ft 214 kts 158°
2026-05-01 13:14 35.93208 140.28577 3017 ft 211 kts 149°
2026-05-01 13:15 35.91980 140.29566 2791 ft 209 kts 157°
2026-05-01 13:15 35.90714 140.30394 2502 ft 204 kts 157°
2026-05-01 13:15 35.89524 140.31279 2229 ft 194 kts 156°
2026-05-01 13:15 35.88403 140.32101 1970 ft 184 kts 159°
2026-05-01 13:16 35.87330 140.32873 1730 ft 172 kts 159°
2026-05-01 13:16 35.86332 140.33600 1491 ft 161 kts 161°
2026-05-01 13:16 35.85397 140.34279 1294 ft 150 kts 162°
2026-05-01 13:17 35.82888 140.36058 694 ft 135 kts 157°
2026-05-01 13:17 35.82068 140.36685 568 ft 140 kts 156°
2026-05-01 13:18 35.80365 140.37913 172 ft 145 kts 152°
2026-05-01 13:18 35.79558 140.38503 150 ft 113 kts 149°
2026-05-01 13:18 35.79043 140.38876 151 ft 57 kts 149°
2026-05-01 13:18 35.78817 140.39032 148 ft 23 kts 160°
2026-05-01 13:19 35.78658 140.39074 148 ft 24 kts 174°
2026-05-01 13:19 35.78540 140.39092 150 ft 15 kts 169°
2026-05-01 13:19 35.78525 140.39096 150 ft 0 kts 168°
2026-05-01 13:21 35.78524 140.39096 150 ft 1 kts 168°
2026-05-01 13:21 35.78481 140.39108 150 ft 12 kts 167°
2026-05-01 13:21 35.78411 140.39127 149 ft 12 kts 167°
2026-05-01 13:21 35.78323 140.39152 149 ft 14 kts 166°
2026-05-01 13:22 35.78257 140.39173 150 ft 4 kts 165°
2026-05-01 13:22 35.78216 140.39186 150 ft 8 kts 165°
2026-05-01 13:22 35.78153 140.39184 150 ft 10 kts 198°
2026-05-01 13:22 35.78090 140.39128 150 ft 12 kts 209°
2026-05-01 13:23 35.78008 140.39143 150 ft 12 kts 150°
2026-05-01 13:23 35.77993 140.39154 150 ft 0 kts 149°
2026-05-01 13:23 35.77967 140.39165 150 ft 11 kts 169°
2026-05-01 13:23 35.77890 140.39192 150 ft 13 kts 140°
2026-05-01 13:24 35.77841 140.39295 150 ft 15 kts 116°
2026-05-01 13:24 35.77772 140.39407 150 ft 18 kts 143°
2026-05-01 13:24 35.77658 140.39493 150 ft 21 kts 150°
2026-05-01 13:25 35.77383 140.39692 150 ft 25 kts 149°
2026-05-01 13:25 35.77240 140.39795 150 ft 21 kts 149°
2026-05-01 13:25 35.77140 140.39865 150 ft 12 kts 152°
2026-05-01 13:25 35.77056 140.39867 150 ft 14 kts 200°
2026-05-01 13:26 35.76959 140.39814 150 ft 16 kts 205°
2026-05-01 13:26 35.76843 140.39781 150 ft 18 kts 181°
2026-05-01 13:26 35.76728 140.39710 150 ft 20 kts 221°
2026-05-01 13:26 35.76607 140.39620 150 ft 21 kts 205°
2026-05-01 13:27 35.76469 140.39542 150 ft 23 kts 204°
2026-05-01 13:27 35.76315 140.39458 150 ft 25 kts 204°
2026-05-01 13:27 35.75974 140.39269 150 ft 28 kts 204°
2026-05-01 13:28 35.75765 140.39048 150 ft 15 kts 239°
2026-05-01 13:28 35.75715 140.38946 150 ft 8 kts 239°
2026-05-01 13:29 35.75714 140.38884 150 ft 0 kts 298°
2026-05-01 13:29 35.75737 140.38843 150 ft 9 kts 299°
2026-05-01 13:30 35.75793 140.38634 150 ft 9 kts 11°
2026-05-01 13:31 35.75828 140.38644 150 ft 0 kts 12°